This is the latest recevied weather packets stored in our database for station/object W2TAO. If no packets are shown the sender has not sent any weather packets the latest 1 day(s).
| Time | Temp. | Humidity | Pressure | Rain* | Wind** | Luminosity | Snow |
|---|---|---|---|---|---|---|---|
| 1836274663 | 11.67° C | 76% | 1022.5 hPa | 0 mm | 0 m/s | 0 W/m² | - |
| 1836274516 | 11.11° C | 80% | 1022.4 hPa | 0 mm | 0.45 m/s, 276° | 0 W/m² | - |
| 1836274361 | 11.67° C | 74% | 1022.5 hPa | 0 mm | 0 m/s | 0 W/m² | - |
| 1836274214 | 11.11° C | 79% | 1022.5 hPa | 0 mm | 0 m/s | 0 W/m² | - |
| 1836274059 | 11.67° C | 75% | 1022.4 hPa | 0 mm | 0 m/s | 0 W/m² | - |
| 1778041297 | 19.44° C | 55% | 1010.8 hPa | 0 mm | 1.34 m/s, 224° | 0 W/m² | - |
| 1778040995 | 19.44° C | 55% | 1010.7 hPa | 0 mm | 2.24 m/s, 231° | 0 W/m² | - |
| 1778040692 | 19.44° C | 55% | 1010.7 hPa | 0 mm | 0.89 m/s, 247° | 0 W/m² | - |
| 1778040389 | 19.44° C | 55% | 1010.8 hPa | 0 mm | 2.24 m/s, 218° | 0 W/m² | - |
| 1778040086 | 19.44° C | 55% | 1010.5 hPa | 0 mm | 1.79 m/s, 227° | 0 W/m² | - |
| 1778039783 | 19.44° C | 55% | 1010.5 hPa | 0 mm | 1.34 m/s, 223° | 0 W/m² | - |
| 1778039479 | 19.44° C | 55% | 1010.8 hPa | 0 mm | 0.89 m/s, 211° | 0 W/m² | - |
| 1778039177 | 19.44° C | 54% | 1010.5 hPa | 0 mm | 0.89 m/s, 179° | 0 W/m² | - |
| 1778038874 | 20° C | 54% | 1010.7 hPa | 0 mm | 1.34 m/s, 210° | 0 W/m² | - |
| 1778038571 | 20° C | 54% | 1010.5 hPa | 0 mm | 1.79 m/s, 241° | 0 W/m² | - |
| 1778038268 | 19.44° C | 54% | 1010.5 hPa | 0 mm | 0.89 m/s, 143° | 0 W/m² | - |
| 1778037965 | 20° C | 54% | 1010.5 hPa | 0 mm | 0.89 m/s, 230° | 0 W/m² | - |
| 1778037662 | 20° C | 54% | 1010.5 hPa | 0 mm | 1.34 m/s, 234° | 0 W/m² | - |
| 1778037359 | 20° C | 54% | 1010.5 hPa | 0 mm | 0.89 m/s, 244° | 0 W/m² | - |
| 1778037056 | 20° C | 53% | 1010.5 hPa | 0 mm | 0.89 m/s, 121° | 0 W/m² | - |
| 1778036755 | 20° C | 53% | 1010.7 hPa | 0 mm | 0 m/s | 0 W/m² | - |
| 1778036451 | 20° C | 53% | 1010.6 hPa | 0 mm | 1.34 m/s, 214° | 0 W/m² | - |
| 1778036148 | 20.56° C | 52% | 1010.7 hPa | 0 mm | 1.79 m/s, 204° | 0 W/m² | - |
| 1778035844 | 20° C | 52% | 1010.4 hPa | 0 mm | 0.89 m/s, 241° | 0 W/m² | - |
| 1778035542 | 20° C | 51% | 1010.5 hPa | 0 mm | 1.34 m/s, 192° | 0 W/m² | - |
* Rain latest hour (hover to see other rain measurements)
** Current wind speed in m/s (hover to see current wind gust speed)